Simultaneous Nadir Overpasses (SNOs) Predictions

Prediction of SNOs between GOES-16 and NOAA-20 Satellite Orbit:

Table of predicted SNOs for the next 14.0 days since TLE Epoch: 1/10/2025
Index Date Time (GOES-16) GOES-16 Lat,Lon NOAA-20 Lat,Lon Distance(km) Time Diff (sec)
1 01/10/2025 18:39:14 0.00, -75.18 0.00, -78.95 419.05 0
2 01/11/2025 18:21:37 -0.01, -75.18 0.22, -74.25 107.45 80
3 01/13/2025 06:43:25 0.02, -75.18 1.00, -79.51 493.71 80
4 01/14/2025 06:22:02 0.02, -75.19 -0.04, -74.99 22.60 80
5 01/16/2025 18:25:15 -0.01, -75.21 -0.16, -75.76 63.83 80
6 01/17/2025 18:09:11 -0.01, -75.22 0.89, -71.24 453.66 80
7 01/19/2025 06:31:00 0.01, -75.24 0.32, -76.51 145.35 80
8 01/20/2025 06:09:36 0.01, -75.25 -0.73, -71.99 372.28 80
9 01/21/2025 18:31:32 -0.01, -75.28 -0.49, -77.29 229.74 80
10 01/22/2025 18:15:29 -0.01, -75.30 0.57, -72.77 288.39 80
11 01/24/2025 06:37:18 0.00, -75.33 0.59, -78.05 309.57 80
